Retour au catalogue

ATLAS 5 CENTAUR DEB

ActifHEO
NORAD 43968·DEBRIS·🇺🇸 United States

Lancé Sep 17, 2014 depuis Cape Canaveral Space Force Station

Loading…

Prochains Passages (prochaines 24 heures)

TLE

FraisSource: Space-Track

Époque: Sep 13, 2026, 07:33 UTC

1 43968U 14055X   26256.31458618 -.00000121  00000-0  00000-0 0  9997
2 43968  20.4355 123.3518 5004275 199.8247 130.4372  1.83134649 53699

Suivez ATLAS 5 CENTAUR DEB en temps réel avec AllMySat

Download on the App Store